TimeCDT,TemperatureF,Dew PointF,Humidity,Sea Level PressureIn,VisibilityMPH,Wind Direction,Wind SpeedMPH,Gust SpeedMPH,PrecipitationIn,Events,Conditions,WindDirDegrees,DateUTC
12:53 AM,32.0,25.0,75,30.22,10.0,Calm,Calm,-,N/A,,Clear,0,2011-10-28 05:53:00
1:53 AM,30.9,25.0,79,30.21,10.0,West,3.5,-,N/A,,Clear,270,2011-10-28 06:53:00
2:53 AM,30.0,25.0,82,30.23,10.0,West,4.6,-,N/A,,Clear,280,2011-10-28 07:53:00
3:53 AM,30.0,24.1,79,30.23,10.0,West,4.6,-,N/A,,Clear,270,2011-10-28 08:53:00
4:53 AM,27.0,23.0,85,30.24,10.0,West,6.9,-,N/A,,Clear,270,2011-10-28 09:53:00
5:53 AM,27.0,21.9,81,30.25,10.0,West,8.1,-,N/A,,Clear,280,2011-10-28 10:53:00
6:53 AM,28.0,23.0,81,30.27,10.0,West,8.1,-,N/A,,Clear,280,2011-10-28 11:53:00
7:53 AM,27.0,21.9,81,30.29,10.0,West,6.9,-,N/A,,Clear,270,2011-10-28 12:53:00
8:53 AM,30.0,24.1,79,30.32,10.0,West,4.6,-,N/A,,Clear,280,2011-10-28 13:53:00
9:53 AM,41.0,28.0,60,30.32,10.0,NW,4.6,-,N/A,,Clear,320,2011-10-28 14:53:00
10:53 AM,46.9,27.0,46,30.32,10.0,WNW,8.1,-,N/A,,Clear,300,2011-10-28 15:53:00
11:53 AM,53.1,27.0,37,30.32,10.0,North,6.9,-,N/A,,Clear,350,2011-10-28 16:53:00
12:53 PM,55.9,24.1,29,30.30,10.0,NNW,6.9,-,N/A,,Clear,330,2011-10-28 17:53:00
1:53 PM,57.9,23.0,26,30.27,10.0,Calm,Calm,-,N/A,,Clear,0,2011-10-28 18:53:00
2:53 PM,59.0,21.0,23,30.25,10.0,Calm,Calm,-,N/A,,Clear,0,2011-10-28 19:53:00
3:53 PM,60.1,21.0,22,30.22,10.0,West,10.4,-,N/A,,Clear,280,2011-10-28 20:53:00
4:53 PM,60.1,19.9,21,30.22,10.0,West,12.7,-,N/A,,Clear,270,2011-10-28 21:53:00
5:53 PM,59.0,19.0,21,30.22,10.0,West,8.1,-,N/A,,Clear,280,2011-10-28 22:53:00
6:53 PM,50.0,21.0,32,30.24,10.0,NW,5.8,-,N/A,,Clear,320,2011-10-28 23:53:00
7:53 PM,42.1,24.1,49,30.26,10.0,NNW,6.9,-,N/A,,Clear,340,2011-10-29 00:53:00
8:53 PM,39.0,25.0,57,30.26,10.0,WNW,3.5,-,N/A,,Clear,290,2011-10-29 01:53:00
9:53 PM,36.0,25.0,64,30.24,10.0,SSW,6.9,-,N/A,,Clear,200,2011-10-29 02:53:00
10:53 PM,37.0,26.1,65,30.23,10.0,SW,3.5,-,N/A,,Clear,230,2011-10-29 03:53:00
11:53 PM,33.1,26.1,75,30.22,10.0,WNW,5.8,-,N/A,,Clear,290,2011-10-29 04:53:00